Wind_Speed
34 34 32 29 28 28 30 32 31 28 26 27 26 23 21 23 28 29 28 28 30 32 34 35 35 34 34 34 33 32 32 34 36 36 35 35 35 34 34 33 34 35 35 36
34 32 28 29 31 31 32 33 31 28 29 30 29 28 26 25 27 28 28 30 32 33 35 36 36 37 36 35 35 35 36 38 39 38 36 37 38 37 36 36 36 38 39 40
31 26 28 31 32 31 31 31 29 28 28 31 32 32 28 27 27 28 29 31 33 35 35 36 37 37 36 36 36 37 39 41 42 41 39 38 38 38 38 38 38 40 40 41
31 29 31 32 33 31 28 27 27 28 30 31 32 34 28 27 28 28 29 31 33 35 36 37 36 35 35 36 37 38 41 42 41 40 40 41 39 39 39 39 40 41 41 41
29 29 31 30 29 28 25 23 24 26 30 32 33 35 30 29 31 31 31 33 34 36 36 35 34 33 34 36 38 40 43 42 40 41 41 39 39 39 40 40 41 42 42 42
27 30 32 29 27 24 21 21 24 27 30 31 28 31 29 25 29 33 36 37 37 36 35 34 33 33 35 38 40 42 44 43 42 42 40 39 39 39 41 41 42 43 43 44
27 30 32 31 28 24 22 23 25 28 28 25 20 25 22 20 25 30 33 35 35 34 32 32 32 34 36 40 43 45 44 44 43 43 41 39 39 40 41 43 44 45 45 45
26 28 28 28 26 23 23 24 25 24 23 20 19 19 16 18 22 24 25 25 27 28 29 29 31 35 39 42 44 44 44 43 43 42 40 39 41 41 43 45 46 47 47 47
25 24 26 25 22 21 21 22 21 21 21 20 20 19 17 18 19 21 21 22 23 25 28 31 34 37 40 42 44 45 45 43 40 40 39 40 41 43 45 47 48 49 50 51
22 24 27 26 25 25 22 20 22 23 22 21 21 19 20 21 22 23 24 25 26 28 31 33 36 39 41 43 45 44 42 40 39 39 40 41 43 46 48 50 51 52 53 53
24 26 28 28 27 27 27 26 25 24 24 24 23 22 23 24 26 28 29 30 31 32 34 36 38 40 42 44 44 43 41 39 38 40 41 43 45 48 50 53 54 55 56 57
27 28 30 30 26 25 28 29 28 28 26 25 25 26 28 29 30 30 30 32 33 35 37 38 40 42 44 44 43 42 41 41 41 42 44 47 49 52 54 56 57 59 60 61
30 31 31 31 30 28 27 29 31 30 29 28 28 30 31 32 33 33 34 35 36 38 40 41 42 43 43 43 44 46 46 45 46 49 51 52 54 55 57 58 59 60 61 62
33 34 33 34 35 33 30 30 31 31 32 33 33 34 34 36 36 36 37 38 40 41 41 42 42 43 44 46 48 51 52 52 54 55 55 56 57 57 57 58 59 60 60 60
34 35 36 35 36 37 36 35 34 34 34 36 37 37 39 40 41 41 42 43 44 44 44 43 44 45 48 51 55 57 58 58 58 57 57 56 55 55 55 56 56 57 57 57
37 37 36 36 37 38 39 39 39 39 38 39 41 43 45 45 45 45 46 46 46 47 47 46 48 52 55 57 58 59 59 59 58 57 56 55 54 53 53 53 53 54 54 55
40 39 38 39 40 41 43 44 44 44 44 45 46 47 48 49 48 47 46 46 47 49 50 53 56 57 58 58 58 58 57 57 57 56 54 53 52 51 50 50 51 52 52 53
39 39 38 38 36 36 39 41 43 45 47 48 49 50 50 50 49 49 50 51 52 54 55 55 56 56 56 56 56 56 55 54 53 51 50 49 47 47 48 48 48 49 49 50
34 35 35 35 36 35 35 37 39 41 43 45 47 49 50 51 51 51 51 51 52 52 53 53 53 53 53 53 52 52 51 50 48 47 45 44 44 44 44 45 46 47 47 48
29 30 31 32 32 32 33 33 35 37 39 41 42 44 45 46 47 47 48 49 49 50 50 51 51 50 50 50 49 48 47 45 44 42 41 41 41 42 43 44 45 46 46 46
24 26 26 27 28 28 29 29 31 33 36 37 39 40 42 43 44 45 46 46 46 47 47 47 47 47 46 46 44 43 41 40 39 38 38 39 40 41 42 42 43 43 42 42
19 21 21 21 21 22 23 24 26 29 31 33 35 37 39 40 41 43 43 43 43 43 43 43 42 42 41 39 38 37 36 35 35 36 36 38 38 39 39 39 40 40 40 40
17 16 16 18 19 20 21 23 24 26 27 29 31 34 35 37 38 39 39 39 39 38 38 38 37 36 34 33 32 32 32 32 33 34 35 36 37 38 38 38 38 38 37 35
17 17 17 18 19 20 21 22 23 24 25 26 28 30 31 32 33 33 33 33 33 33 32 31 30 29 29 29 29 28 29 31 32 33 34 35 36 36 37 36 35 34 32 30
15 16 16 17 18 19 20 21 23 24 25 26 26 27 28 29 29 29 28 27 27 26 25 24 24 24 24 24 25 27 28 30 31 32 34 34 35 34 34 32 30 27 25 23
14 15 16 16 17 18 19 20 21 22 22 23 23 23 23 23 23 22 22 22 21 19 19 18 19 19 20 22 24 26 29 30 32 33 33 33 32 30 28 25 23 21 20 18
Wind_Direction
229 231 231 232 234 233 233 235 234 231 227 230 232 235 228 229 237 242 249 258 267 275 281 285 290 295 299 303 305 305 303 303 300 297 298 300 298 296 294 292 291 292 291 290
229 231 230 229 230 230 231 233 233 229 228 233 234 237 235 229 236 244 252 259 268 275 281 286 290 294 297 299 301 303 302 299 296 293 292 293 292 292 291 290 290 290 290 290
231 228 227 227 228 230 232 235 235 231 225 232 238 242 242 240 240 244 252 260 267 274 279 283 287 290 292 294 297 299 298 295 291 288 289 288 286 286 288 288 288 289 291 293
224 220 223 225 226 225 228 232 234 231 227 228 238 245 241 241 241 243 250 259 266 270 275 279 282 286 288 291 293 294 293 291 288 288 289 288 286 285 286 286 288 289 291 293
221 219 223 225 226 226 222 223 229 231 233 234 235 246 245 240 242 244 248 253 258 264 269 274 277 281 284 286 288 289 289 288 289 290 290 289 288 287 286 286 287 290 291 293
215 214 217 217 217 221 219 222 230 236 240 243 240 247 251 243 244 244 247 251 255 259 263 267 272 277 280 282 284 285 287 288 291 292 292 290 290 288 288 288 289 290 291 292
213 215 216 213 212 211 217 226 234 239 243 247 241 244 245 236 238 243 246 249 251 252 256 261 268 273 275 276 279 282 285 288 290 292 293 293 291 289 289 290 290 291 292 292
215 216 217 216 215 211 216 228 236 243 246 240 228 234 236 234 237 243 249 251 251 253 255 259 263 265 267 270 274 279 282 285 288 291 292 291 291 291 291 291 291 291 291 291
217 212 207 209 210 216 221 231 240 246 245 238 225 230 243 244 246 248 252 255 256 257 258 259 261 263 267 270 273 276 279 282 286 289 291 292 292 291 291 291 290 290 289 289
217 208 201 202 207 215 223 234 243 245 246 243 236 237 245 249 249 253 257 261 262 263 263 264 266 267 270 273 275 279 281 280 284 288 291 292 291 291 290 290 289 289 289 289
215 212 201 203 210 219 221 227 237 244 246 248 249 247 246 246 248 252 256 260 263 265 267 269 271 272 274 276 278 280 279 279 283 287 289 289 289 289 289 289 289 289 288 289
219 217 210 209 213 222 225 225 231 238 243 247 251 252 249 249 250 253 255 258 262 266 268 270 272 274 276 278 281 281 281 283 284 286 287 287 287 287 288 287 287 287 288 289
222 223 220 213 215 219 220 223 227 232 237 240 243 247 250 252 255 257 260 263 266 268 271 273 275 276 278 281 284 285 286 286 287 288 288 288 288 287 287 287 287 287 288 289
224 227 227 222 219 222 221 222 225 228 232 236 238 244 249 253 256 259 261 264 267 269 271 274 277 278 282 284 286 287 289 289 289 289 289 288 288 287 287 287 287 287 288 289
229 232 234 234 231 231 229 229 231 234 236 239 243 247 251 254 258 260 263 265 268 270 272 274 278 282 284 287 289 290 290 290 290 290 290 290 289 289 288 288 287 288 288 289
239 239 241 243 243 243 243 243 243 243 245 248 251 254 257 258 260 262 263 266 269 272 274 278 282 286 288 289 290 290 291 291 292 292 292 291 291 290 289 288 288 288 289 290
248 246 245 246 247 248 249 248 248 249 250 252 254 257 258 260 262 264 266 269 273 277 280 284 287 288 288 289 289 290 290 291 291 292 292 292 292 291 290 289 289 290 290 292
248 249 249 248 247 247 248 248 248 249 250 251 254 257 260 263 267 271 274 278 282 285 286 286 287 288 289 290 290 291 291 292 292 293 293 292 291 291 290 290 291 292 293 294
245 247 249 248 248 248 247 249 250 251 252 253 255 258 261 265 268 272 275 278 280 282 284 286 288 289 290 290 291 291 292 292 293 293 293 293 292 292 293 293 294 295 296 296
245 247 249 250 251 250 249 249 251 252 254 256 258 261 264 266 269 272 274 277 279 282 285 287 288 289 289 290 291 292 292 293 293 293 293 293 294 294 294 295 296 297 297 298
245 247 248 250 252 253 253 252 253 253 255 258 260 263 265 268 270 273 276 278 280 283 285 286 287 289 290 291 292 293 293 294 294 294 294 295 296 297 297 298 299 300 301 302
245 245 250 251 252 256 259 259 258 258 258 259 261 263 266 270 272 275 278 281 282 284 285 287 288 290 292 292 293 294 295 296 296 296 297 298 299 300 300 301 302 303 304 304
256 257 256 260 264 264 265 266 266 265 264 265 266 267 269 271 274 276 279 281 283 284 286 288 290 292 294 295 295 296 297 299 300 300 302 302 302 303 304 305 306 306 305 305
265 268 271 272 271 271 270 270 270 270 270 270 271 272 274 277 279 280 282 283 284 285 287 289 291 293 296 298 299 300 301 303 305 306 307 307 308 308 308 308 307 306 306 306
264 267 270 270 272 273 275 275 275 275 275 275 275 276 278 281 282 283 284 286 287 288 289 292 295 297 300 302 304 306 308 310 310 310 310 310 310 309 309 308 308 308 308 309
264 268 272 276 279 282 283 282 280 279 278 278 278 278 280 282 284 286 287 288 289 290 293 298 302 305 308 310 313 314 315 314 314 313 313 313 312 312 311 311 311 311 312 312
Height
5821 5826 5830 5836 5839 5842 5844 5845 5848 5853 5854 5854 5854 5857 5861 5863 5862 5863 5864 5865 5865 5865 5865 5865 5865 5864 5864 5863 5862 5861 5860 5858 5855 5852 5850 5850 5848 5848 5847 5845 5842 5840 5838 5835
5814 5820 5826 5828 5830 5833 5836 5838 5841 5846 5849 5848 5848 5850 5853 5855 5857 5858 5859 5860 5860 5860 5860 5858 5858 5858 5857 5856 5855 5855 5853 5851 5849 5845 5843 5842 5841 5840 5839 5837 5835 5832 5830 5827
5808 5816 5818 5820 5823 5826 5829 5833 5836 5840 5842 5841 5842 5843 5846 5849 5851 5853 5854 5855 5855 5854 5854 5853 5852 5852 5851 5850 5849 5848 5846 5845 5842 5839 5836 5835 5833 5833 5831 5830 5827 5824 5821 5819
5801 5806 5809 5812 5816 5819 5824 5828 5830 5832 5835 5836 5837 5836 5841 5843 5845 5847 5848 5849 5848 5848 5848 5848 5847 5847 5845 5844 5843 5841 5840 5837 5834 5831 5829 5828 5826 5825 5824 5822 5819 5816 5813 5811
5796 5801 5803 5807 5812 5814 5818 5821 5824 5826 5827 5829 5831 5831 5836 5838 5839 5841 5842 5842 5842 5841 5841 5841 5841 5841 5839 5838 5836 5835 5833 5829 5827 5825 5822 5820 5819 5818 5816 5814 5811 5809 5806 5803
5790 5794 5797 5802 5806 5809 5812 5815 5817 5819 5820 5823 5827 5827 5828 5832 5833 5833 5834 5834 5835 5835 5835 5835 5835 5834 5833 5831 5830 5828 5825 5822 5820 5818 5815 5813 5812 5811 5808 5805 5804 5801 5798 5795
5783 5787 5791 5795 5798 5802 5806 5809 5812 5813 5814 5818 5821 5821 5823 5824 5824 5824 5825 5826 5827 5827 5828 5828 5828 5827 5826 5824 5823 5820 5817 5815 5813 5811 5808 5806 5805 5803 5801 5798 5795 5792 5789 5785
5779 5783 5788 5791 5794 5798 5801 5804 5807 5809 5811 5813 5815 5815 5817 5816 5817 5817 5818 5819 5819 5820 5821 5821 5820 5819 5818 5817 5814 5812 5809 5807 5805 5803 5801 5799 5796 5794 5792 5789 5786 5782 5778 5774
5774 5780 5785 5788 5791 5794 5796 5799 5802 5804 5805 5806 5809 5811 5811 5810 5811 5812 5812 5813 5813 5814 5814 5814 5813 5812 5810 5808 5806 5804 5801 5799 5797 5795 5793 5789 5787 5784 5781 5778 5775 5771 5767 5763
5769 5775 5780 5783 5786 5788 5791 5795 5797 5797 5799 5800 5803 5805 5805 5804 5805 5806 5806 5806 5807 5807 5806 5806 5806 5804 5803 5801 5798 5795 5793 5791 5789 5786 5784 5781 5778 5774 5771 5767 5763 5759 5755 5751
5763 5768 5774 5777 5780 5782 5785 5788 5789 5791 5793 5795 5797 5800 5798 5799 5799 5800 5800 5801 5801 5801 5800 5799 5797 5796 5794 5792 5789 5786 5783 5782 5779 5777 5774 5771 5768 5764 5760 5755 5751 5747 5742 5738
5757 5762 5767 5772 5775 5776 5778 5780 5783 5785 5787 5789 5791 5793 5790 5791 5792 5793 5794 5794 5794 5793 5792 5791 5789 5787 5785 5782 5779 5777 5774 5772 5769 5767 5763 5760 5756 5752 5748 5743 5738 5734 5729 5724
5751 5756 5761 5767 5771 5770 5770 5772 5774 5777 5780 5781 5782 5784 5782 5783 5784 5785 5786 5786 5786 5784 5783 5782 5780 5778 5775 5773 5771 5768 5765 5762 5759 5756 5752 5748 5743 5739 5734 5730 5724 5720 5715 5710
5747 5750 5755 5760 5761 5763 5764 5765 5766 5768 5770 5772 5773 5774 5775 5775 5776 5777 5777 5777 5776 5775 5774 5773 5770 5768 5766 5763 5760 5758 5754 5751 5747 5743 5739 5734 5730 5725 5720 5715 5711 5706 5701 5696
5742 5745 5748 5752 5755 5756 5757 5758 5759 5760 5761 5763 5765 5767 5767 5768 5768 5768 5768 5768 5767 5766 5764 5763 5760 5758 5755 5752 5749 5746 5742 5738 5733 5729 5724 5720 5715 5710 5706 5701 5696 5691 5686 5681
5735 5739 5742 5745 5747 5749 5750 5751 5752 5753 5754 5755 5758 5759 5760 5760 5760 5760 5759 5758 5757 5756 5754 5751 5748 5746 5743 5740 5736 5732 5728 5723 5719 5714 5709 5705 5700 5696 5691 5686 5681 5676 5671 5667
5726 5729 5733 5735 5738 5740 5741 5742 5743 5745 5747 5749 5750 5752 5751 5751 5751 5750 5749 5748 5746 5744 5742 5740 5737 5734 5731 5727 5723 5719 5714 5709 5704 5700 5695 5690 5685 5681 5676 5672 5667 5663 5658 5653
5717 5720 5722 5725 5728 5730 5731 5731 5734 5736 5738 5740 5741 5742 5742 5742 5741 5740 5738 5737 5735 5733 5731 5728 5725 5721 5717 5713 5709 5705 5700 5695 5691 5686 5681 5676 5672 5667 5663 5659 5654 5649 5644 5639
5708 5711 5713 5715 5718 5720 5721 5722 5724 5726 5727 5729 5730 5731 5731 5731 5731 5730 5728 5727 5724 5722 5719 5716 5712 5709 5705 5701 5696 5691 5687 5682 5678 5673 5668 5664 5659 5655 5651 5646 5642 5637 5632 5627
5701 5703 5705 5706 5708 5711 5714 5714 5715 5718 5717 5719 5720 5720 5720 5720 5721 5720 5718 5715 5713 5711 5708 5704 5701 5697 5693 5688 5684 5679 5675 5670 5666 5661 5657 5652 5648 5643 5639 5635 5630 5625 5620 5615
5694 5695 5697 5698 5700 5702 5705 5705 5707 5709 5710 5710 5710 5710 5710 5709 5710 5709 5706 5704 5702 5700 5696 5693 5689 5685 5681 5677 5672 5668 5663 5659 5655 5651 5646 5642 5637 5633 5628 5623 5618 5613 5608 5603
5688 5689 5690 5692 5694 5698 5697 5698 5699 5700 5700 5700 5701 5701 5700 5700 5699 5697 5696 5693 5691 5688 5686 5682 5678 5675 5670 5666 5662 5658 5654 5650 5645 5641 5637 5632 5627 5622 5617 5612 5607 5602 5597 5592
5683 5685 5685 5687 5690 5690 5690 5690 5691 5691 5692 5692 5692 5691 5691 5690 5689 5688 5686 5684 5681 5678 5675 5672 5669 5665 5661 5657 5653 5650 5645 5641 5637 5632 5627 5622 5617 5612 5607 5602 5597 5592 5587 5582
5678 5679 5680 5681 5682 5682 5683 5683 5683 5683 5684 5683 5683 5682 5682 5681 5679 5678 5676 5674 5672 5669 5666 5663 5660 5657 5654 5650 5646 5642 5638 5633 5629 5624 5619 5613 5608 5603 5598 5593 5588 5583 5578 5574
5675 5675 5675 5675 5676 5676 5676 5676 5676 5676 5675 5675 5674 5674 5673 5672 5670 5669 5667 5666 5663 5661 5659 5657 5654 5651 5648 5644 5640 5636 5631 5626 5621 5616 5611 5605 5600 5594 5589 5584 5579 5575 5571 5567
5671 5671 5671 5671 5671 5671 5671 5669 5669 5668 5668 5667 5666 5666 5665 5664 5663 5662 5660 5659 5657 5656 5654 5651 5649 5646 5642 5639 5634 5630 5625 5620 5614 5608 5603 5597 5591 5586 5581 5577 5573 5569 5566 5563